Home   Weather   Hollywood   Past weeks

Flag for USA Past Weather in Hollywood, Florida, USA — Yesterday and Last 2 Weeks

Now
79 °F

Scattered clouds.


Feels Like: 82 °F
Forecast: 75 / 83 °F
Wind: 18 mph from Southeast

Location: Fort Lauderdale / Hollywood International Airport

Current Time: Feb 28, 2017 at 9:51:55 am

Latest Report: Feb 28, 2017 at 8:53 am


Visibility: 10 mi

Pressure: 30.26 "Hg

Humidity: 74%

Dew Point: 70 °F

Location of HollywoodLocation

Past Weather in Hollywood — Graph

°F

Hollywood Temperature Yesterday

Maximum temperature yesterday: 82 °F (at 1:53 pm)
Minimum temperature yesterday: 74 °F (at 12:53 am)
Average temperature yesterday: 77 °F

High & Low Weather Summary for the Past Weeks

 TemperatureHumidityPressure
High88 °F (Feb 19, 2:53 pm)100% (Feb 14, 7:53 am)30.24 "Hg (Feb 14, 7:53 am)
Low58 °F (Feb 17, 2:53 am)42% (Feb 19, 2:53 pm)29.59 "Hg (Feb 23, 3:53 pm)
Average73 °F74%29.96 "Hg
* Reported Feb 13 7:53 am — Feb 28 7:53 am, Hollywood, Weather by CustomWeather, © 2017

Note: Actual official high and low records may vary slightly from our data, if they occured in-between our weather recording intervals... More about our weather records

Advertising

Hollywood Weather History for the Previous 24 Hours

Scroll right to see more
 ConditionsComfort  
Time TempWeatherWind HumidityBarometerVisibility
7:53 am
Tue, Feb 28
77 °FScattered clouds.16 mph77%30.24 "Hg10 mi
6:53 am76 °FScattered clouds.10 mph82%30.22 "Hg10 mi
6:29 am75 °FPassing clouds.12 mph82%30.22 "Hg10 mi
5:53 am75 °FPassing clouds.14 mph82%30.21 "Hg10 mi
4:53 am75 °FPassing clouds.13 mph85%30.21 "Hg10 mi
4:15 am75 °FPassing clouds.12 mph85%30.20 "Hg10 mi
3:53 am76 °FPartly cloudy.13 mph82%30.20 "Hg10 mi
3:18 am76 °FPassing clouds.14 mph82%30.20 "Hg10 mi
2:53 am76 °FPassing clouds.15 mph82%30.20 "Hg10 mi
1:53 am76 °FPartly cloudy.12 mph85%30.22 "Hg10 mi
1:08 am76 °FPassing clouds.14 mph85%30.23 "Hg10 mi
11:53 pm
Mon, Feb 27
76 °FPassing clouds.14 mph85%30.24 "Hg10 mi
10:53 pm76 °FPassing clouds.15 mph88%30.24 "Hg10 mi
9:53 pm76 °FPassing clouds.14 mph88%30.24 "Hg10 mi
9:36 pm76 °FPartly cloudy.13 mph88%30.24 "Hg10 mi
9:17 pm76 °FPartly cloudy.12 mph88%30.23 "Hg10 mi
8:53 pm76 °FPartly cloudy.13 mph88%30.22 "Hg10 mi
8:07 pm76 °FPartly cloudy.14 mph88%30.21 "Hg10 mi
6:53 pm77 °FPassing clouds.12 mph82%30.19 "Hg10 mi
5:53 pm78 °FBroken clouds.14 mph76%30.18 "Hg10 mi
4:53 pm78 °FBroken clouds.15 mph76%30.17 "Hg10 mi
3:53 pm80 °FBroken clouds.16 mph69%30.16 "Hg10 mi
2:53 pm79 °FScattered clouds.15 mph72%30.17 "Hg10 mi
1:53 pm82 °FScattered clouds.20 mph65%30.17 "Hg10 mi
12:53 pm81 °FScattered clouds.20 mph65%30.20 "Hg10 mi
11:53 am81 °FScattered clouds.20 mph62%30.22 "Hg10 mi
10:53 am80 °FPassing clouds.17 mph62%30.24 "Hg10 mi
9:53 am79 °FPassing clouds.18 mph62%30.24 "Hg10 mi
Weather by CustomWeather, © 2017

See weather overviewHow to use our weather pages